| time (UTC) | temp F | wind direction | speed knots | gust knots | rain 1hr in | rain 24hr in | rain mn in | humidity % | barometer mb |
| 20260507041007 | 73 | 44 | 0.0 | 4.3 | 0.00 | 0.00 | 0.00 | 45 | 1003.4 |
| 20260507040508 | 73 | 39 | 0.9 | 5.2 | 0.00 | 0.00 | 0.00 | 45 | 1003.3 |
| 20260507040007 | 73 | 68 | 0.9 | 7.0 | 0.00 | 0.00 | 0.00 | 45 | 1003.3 |
| 20260507035507 | 73 | 70 | 0.9 | 7.8 | 0.00 | 0.00 | 0.00 | 45 | 1003.3 |
| 20260507035007 | 73 | 62 | 2.6 | 8.7 | 0.00 | 0.00 | 0.00 | 44 | 1003.1 |
| 20260507034549 | 74 | 60 | 5.2 | 9.6 | 0.00 | 0.00 | 0.00 | 44 | 1003.0 |
| 20260507034050 | 74 | 69 | 1.7 | 7.8 | 0.00 | 0.00 | 0.00 | 42 | 1002.8 |
| 20260507033549 | 75 | 79 | 2.6 | 8.7 | 0.00 | 0.00 | 0.00 | 42 | 1002.7 |
| 20260507033049 | 75 | 62 | 1.7 | 8.7 | 0.00 | 0.00 | 0.00 | 41 | 1002.6 |
| 20260507032549 | 76 | 74 | 1.7 | 7.0 | 0.00 | 0.00 | 0.00 | 39 | 1002.5 |
| 20260507032048 | 77 | 48 | 1.7 | 8.7 | 0.00 | 0.00 | 0.00 | 38 | 1002.2 |
| 20260507031533 | 77 | 65 | 3.5 | 8.7 | 0.00 | 0.00 | 0.00 | 37 | 1002.1 |
| 20260507031033 | 77 | 68 | 2.6 | 7.8 | 0.00 | 0.00 | 0.00 | 37 | 1001.8 |
| 20260507030531 | 77 | 70 | 2.6 | 6.1 | 0.00 | 0.00 | 0.00 | 38 | 1001.6 |
| 20260507030036 | 78 | 72 | 0.9 | 7.8 | 0.00 | 0.00 | 0.00 | 38 | 1001.4 |
| 20260507025529 | 78 | 55 | 2.6 | 7.8 | 0.00 | 0.00 | 0.00 | 37 | 1001.2 |
| 20260507025030 | 79 | 150 | 0.9 | 7.0 | 0.00 | 0.00 | 0.00 | 35 | 1001.0 |
| 20260507024516 | 79 | 240 | 0.9 | 7.8 | 0.00 | 0.00 | 0.00 | 35 | 1000.9 |
| 20260507024012 | 79 | 164 | 0.0 | 7.8 | 0.00 | 0.00 | 0.00 | 34 | 1000.7 |
| 20260507023511 | 79 | 170 | 0.0 | 5.2 | 0.00 | 0.00 | 0.00 | 34 | 1000.7 |
| 20260507023010 | 80 | 258 | 0.0 | 4.3 | 0.00 | 0.00 | 0.00 | 34 | 1000.5 |
| 20260507022510 | 80 | 70 | 0.0 | 8.7 | 0.00 | 0.00 | 0.00 | 32 | 1000.6 |
| 20260507022010 | 80 | 201 | 0.9 | 5.2 | 0.00 | 0.00 | 0.00 | 31 | 1000.5 |
| 20260507021602 | 80 | 219 | 0.9 | 7.0 | 0.00 | 0.00 | 0.00 | 31 | 1000.5 |
| 20260507021052 | 81 | 217 | 0.9 | 9.6 | 0.00 | 0.00 | 0.00 | 31 | 1000.3 |
| 20260507020552 | 81 | 42 | 0.0 | 6.1 | 0.00 | 0.00 | 0.00 | 31 | 1000.3 |
| 20260507020052 | 82 | 155 | 0.0 | 4.3 | 0.00 | 0.00 | 0.00 | 29 | 1000.2 |
| 20260507015551 | 83 | 107 | 0.0 | 0.9 | 0.00 | 0.00 | 0.00 | 26 | 1000.1 |
| 20260507015051 | 83 | 236 | 0.0 | 0.9 | 0.00 | 0.00 | 0.00 | 25 | 1000.0 |
| 20260507014534 | 83 | 236 | 0.0 | 0.9 | 0.00 | 0.00 | 0.00 | 26 | 999.7 |
| 20260507014036 | 83 | 236 | 0.0 | 0.9 | 0.00 | 0.00 | 0.00 | 26 | 999.6 |
| 20260507013534 | 83 | 267 | 0.0 | 0.9 | 0.00 | 0.00 | 0.00 | 26 | 999.5 |
| 20260507013037 | 83 | 266 | 0.0 | 0.9 | 0.00 | 0.00 | 0.00 | 25 | 999.5 |
| 20260507012535 | 84 | 260 | 0.0 | 0.9 | 0.00 | 0.00 | 0.00 | 26 | 999.5 |
| 20260507012034 | 84 | 253 | 0.0 | 0.9 | 0.00 | 0.00 | 0.00 | 25 | 999.5 |
| 20260507011522 | 84 | 248 | 0.0 | 0.9 | 0.00 | 0.00 | 0.00 | 25 | 999.5 |
| 20260507011015 | 84 | 249 | 0.0 | 0.9 | 0.00 | 0.00 | 0.00 | 24 | 999.3 |
| 20260507010515 | 85 | 262 | 0.0 | 0.9 | 0.00 | 0.00 | 0.00 | 24 | 999.4 |
| 20260507010028 | 85 | 246 | 0.0 | 0.9 | 0.00 | 0.00 | 0.00 | 24 | 999.4 |
| 20260507005515 | 85 | 249 | 0.0 | 0.9 | 0.00 | 0.00 | 0.00 | 24 | 999.3 |
| 20260507005021 | 86 | 264 | 0.0 | 0.0 | 0.00 | 0.00 | 0.00 | 24 | 999.3 |
| 20260507004557 | 86 | 250 | 0.0 | 0.0 | 0.00 | 0.00 | 0.00 | 24 | 999.2 |
| 20260507004057 | 86 | 249 | 0.0 | 0.9 | 0.00 | 0.00 | 0.00 | 23 | 999.2 |
| 20260507003556 | 86 | 246 | 0.0 | 0.9 | 0.00 | 0.00 | 0.00 | 23 | 999.0 |
| 20260507003057 | 87 | 255 | 0.0 | 0.9 | 0.00 | 0.00 | 0.00 | 23 | 999.0 |
| 20260507002556 | 87 | 246 | 0.0 | 0.9 | 0.00 | 0.00 | 0.00 | 23 | 998.9 |
| 20260507002056 | 87 | 233 | 0.0 | 0.9 | 0.00 | 0.00 | 0.00 | 23 | 998.8 |
| 20260507001538 | 87 | 252 | 0.0 | 0.9 | 0.00 | 0.00 | 0.00 | 23 | 998.7 |
| 20260507001037 | 87 | 246 | 0.0 | 0.9 | 0.00 | 0.00 | 0.00 | 23 | 998.6 |
| 20260507000539 | 87 | 245 | 0.0 | 2.6 | 0.00 | 0.00 | 0.00 | 22 | 998.6 |
| 20260507000038 | 88 | 245 | 0.0 | 2.6 | 0.00 | 0.00 | 0.00 | 23 | 998.5 |
| 20260506235539 | 88 | 267 | 0.0 | 0.9 | 0.00 | 0.00 | 0.00 | 23 | 998.4 |
| 20260506235037 | 87 | 279 | 0.0 | 0.9 | 0.00 | 0.00 | 0.00 | 23 | 998.4 |
| 20260506234520 | 88 | 228 | 0.0 | 0.9 | 0.00 | 0.00 | 0.00 | 24 | 998.3 |
| 20260506234019 | 88 | 233 | 0.0 | 0.9 | 0.00 | 0.00 | 0.00 | 22 | 998.2 |
| 20260506233520 | 88 | 238 | 0.0 | 0.9 | 0.00 | 0.00 | 0.00 | 23 | 998.2 |
| 20260506233019 | 89 | 258 | 0.0 | 0.9 | 0.00 | 0.00 | 0.00 | 22 | 998.1 |
| 20260506232522 | 89 | 232 | 0.0 | 0.9 | 0.00 | 0.00 | 0.00 | 22 | 998.0 |
| 20260506232019 | 89 | 243 | 0.0 | 0.9 | 0.00 | 0.00 | 0.00 | 22 | 998.1 |
| 20260506231502 | 89 | 264 | 0.0 | 0.9 | 0.00 | 0.00 | 0.00 | 22 | 998.1 |
| 20260506231002 | 89 | 247 | 0.0 | 0.9 | 0.00 | 0.00 | 0.00 | 21 | 998.1 |
| 20260506230501 | 89 | 243 | 0.0 | 0.9 | 0.00 | 0.00 | 0.00 | 21 | 998.1 |
| 20260506230100 | 89 | 255 | 0.0 | 0.9 | 0.00 | 0.00 | 0.00 | 21 | 998.1 |
| 20260506225605 | 88 | 262 | 0.0 | 1.7 | 0.00 | 0.00 | 0.00 | 22 | 998.2 |
| 20260506225100 | 88 | 237 | 0.0 | 1.7 | 0.00 | 0.00 | 0.00 | 22 | 998.3 |
| 20260506224545 | 89 | 243 | 0.0 | 0.9 | 0.00 | 0.00 | 0.00 | 22 | 998.3 |
| 20260506224040 | 89 | 252 | 0.0 | 10.4 | 0.00 | 0.00 | 0.00 | 22 | 998.4 |
| 20260506223539 | 89 | 228 | 4.3 | 10.4 | 0.00 | 0.00 | 0.00 | 21 | 998.5 |
| 20260506223045 | 90 | 243 | 0.0 | 0.9 | 0.00 | 0.00 | 0.00 | 22 | 998.5 |
| 20260506222539 | 90 | 239 | 0.0 | 0.9 | 0.00 | 0.00 | 0.00 | 21 | 998.6 |
| 20260506222043 | 90 | 273 | 0.0 | 0.9 | 0.00 | 0.00 | 0.00 | 21 | 998.5 |
| 20260506221522 | 91 | 226 | 0.0 | 7.0 | 0.00 | 0.00 | 0.00 | 21 | 998.5 |
| 20260506221021 | 90 | 236 | 1.7 | 7.0 | 0.00 | 0.00 | 0.00 | 22 | 998.7 |
| 20260506220519 | 90 | 262 | 0.0 | 0.9 | 0.00 | 0.00 | 0.00 | 22 | 998.7 |
| 20260506220028 | 89 | 290 | 0.0 | 0.9 | 0.00 | 0.00 | 0.00 | 22 | 998.7 |
| 20260506215518 | 89 | 271 | 0.0 | 1.7 | 0.00 | 0.00 | 0.00 | 23 | 998.8 |
| 20260506215018 | 89 | 239 | 0.0 | 0.9 | 0.00 | 0.00 | 0.00 | 22 | 998.9 |
| 20260506214617 | 89 | 259 | 0.9 | 0.0 | 0.00 | 0.00 | 0.00 | 21 | 999.0 |
| 20260506214058 | 90 | 211 | 1.7 | 8.7 | 0.00 | 0.00 | 0.00 | 21 | 999.0 |
| 20260506213558 | 89 | 249 | 2.6 | 9.6 | 0.00 | 0.00 | 0.00 | 22 | 999.1 |
| 20260506213058 | 89 | 205 | 6.1 | 9.6 | 0.00 | 0.00 | 0.00 | 21 | 999.1 |
| 20260506212557 | 90 | 257 | 0.0 | 8.7 | 0.00 | 0.00 | 0.00 | 23 | 999.1 |
| 20260506212056 | 90 | 258 | 1.7 | 8.7 | 0.00 | 0.00 | 0.00 | 21 | 999.2 |
| 20260506211556 | 90 | 249 | 0.0 | 0.9 | 0.00 | 0.00 | 0.00 | 22 | 999.3 |
| 20260506211044 | 90 | 222 | 0.0 | 10.4 | 0.00 | 0.00 | 0.00 | 22 | 999.4 |
| 20260506210545 | 89 | 225 | 3.5 | 12.2 | 0.00 | 0.00 | 0.00 | 23 | 999.4 |
| 20260506210042 | 89 | 243 | 6.1 | 13.9 | 0.00 | 0.00 | 0.00 | 23 | 999.5 |
| 20260506205541 | 89 | 226 | 6.1 | 12.2 | 0.00 | 0.00 | 0.00 | 22 | 999.5 |
| 20260506205041 | 89 | 243 | 5.2 | 10.4 | 0.00 | 0.00 | 0.00 | 22 | 999.6 |
| 20260506204551 | 90 | 251 | 0.0 | 12.2 | 0.00 | 0.00 | 0.00 | 22 | 999.6 |
| 20260506204043 | 90 | 256 | 5.2 | 12.2 | 0.00 | 0.00 | 0.00 | 21 | 999.6 |
| 20260506203538 | 89 | 226 | 0.0 | 9.6 | 0.00 | 0.00 | 0.00 | 22 | 999.6 |
| 20260506203037 | 88 | 251 | 3.5 | 12.2 | 0.00 | 0.00 | 0.00 | 22 | 999.9 |
| 20260506202536 | 89 | 252 | 7.8 | 12.2 | 0.00 | 0.00 | 0.00 | 22 | 1000.1 |
| 20260506202035 | 89 | 270 | 0.9 | 11.3 | 0.00 | 0.00 | 0.00 | 22 | 1000.2 |
| 20260506201538 | 90 | 256 | 6.1 | 11.3 | 0.00 | 0.00 | 0.00 | 21 | 1000.2 |
| 20260506201036 | 89 | 236 | 0.0 | 5.2 | 0.00 | 0.00 | 0.00 | 22 | 1000.3 |
| 20260506200532 | 89 | 246 | 0.0 | 9.6 | 0.00 | 0.00 | 0.00 | 22 | 1000.5 |
| 20260506200034 | 89 | 278 | 3.5 | 9.6 | 0.00 | 0.00 | 0.00 | 22 | 1000.6 |
| 20260506195531 | 89 | 285 | 3.5 | 9.6 | 0.00 | 0.00 | 0.00 | 23 | 1000.7 |
| 20260506195033 | 89 | 259 | 0.0 | 7.8 | 0.00 | 0.00 | 0.00 | 22 | 1000.8 |
| 20260506194528 | 88 | 284 | 1.7 | 12.2 | 0.00 | 0.00 | 0.00 | 22 | 1000.9 |
| 20260506194028 | 88 | 256 | 7.8 | 13.0 | 0.00 | 0.00 | 0.00 | 22 | 1001.2 |
| 20260506193527 | 88 | 239 | 1.7 | 8.7 | 0.00 | 0.00 | 0.00 | 23 | 1001.2 |
| 20260506193026 | 88 | 268 | 0.0 | 8.7 | 0.00 | 0.00 | 0.00 | 22 | 1001.4 |
| 20260506192524 | 87 | 271 | 0.0 | 8.7 | 0.00 | 0.00 | 0.00 | 22 | 1001.4 |
| 20260506192025 | 88 | 259 | 5.2 | 12.2 | 0.00 | 0.00 | 0.00 | 22 | 1001.6 |
| 20260506191526 | 88 | 249 | 6.1 | 12.2 | 0.00 | 0.00 | 0.00 | 21 | 1001.6 |
| 20260506191006 | 88 | 243 | 1.7 | 7.0 | 0.00 | 0.00 | 0.00 | 23 | 1001.7 |
| 20260506190505 | 87 | 253 | 0.0 | 4.3 | 0.00 | 0.00 | 0.00 | 22 | 1001.9 |
| 20260506190006 | 87 | 274 | 1.7 | 8.7 | 0.00 | 0.00 | 0.00 | 22 | 1002.0 |
| 20260506185501 | 87 | 258 | 3.5 | 11.3 | 0.00 | 0.00 | 0.00 | 23 | 1002.1 |
| 20260506185001 | 86 | 231 | 4.3 | 11.3 | 0.00 | 0.00 | 0.00 | 22 | 1002.2 |
| 20260506184700 | 86 | 271 | 7.0 | 10.4 | 0.00 | 0.00 | 0.00 | 22 | 1002.3 |
| 20260506184048 | 87 | 257 | 1.7 | 7.8 | 0.00 | 0.00 | 0.00 | 21 | 1002.4 |
| 20260506183549 | 87 | 239 | 0.9 | 5.2 | 0.00 | 0.00 | 0.00 | 22 | 1002.5 |
| 20260506183100 | 87 | 249 | 0.0 | 0.9 | 0.00 | 0.00 | 0.00 | 23 | 1002.6 |
| 20260506182545 | 87 | 269 | 0.0 | 0.9 | 0.00 | 0.00 | 0.00 | 22 | 1002.6 |
| 20260506182044 | 86 | 270 | 0.0 | 7.0 | 0.00 | 0.00 | 0.00 | 23 | 1002.7 |
| 20260506181549 | 86 | 243 | 0.9 | 7.0 | 0.00 | 0.00 | 0.00 | 22 | 1002.9 |
| 20260506181042 | 85 | 259 | 1.7 | 10.4 | 0.00 | 0.00 | 0.00 | 23 | 1002.9 |
| 20260506180543 | 84 | 243 | 4.3 | 10.4 | 0.00 | 0.00 | 0.00 | 22 | 1003.1 |
| 20260506180040 | 85 | 251 | 5.2 | 10.4 | 0.00 | 0.00 | 0.00 | 23 | 1003.1 |
| 20260506175542 | 84 | 253 | 0.0 | 1.7 | 0.00 | 0.00 | 0.00 | 24 | 1003.2 |
| 20260506175040 | 84 | 266 | 0.0 | 10.4 | 0.00 | 0.00 | 0.00 | 24 | 1003.3 |
| 20260506174539 | 84 | 282 | 0.0 | 10.4 | 0.00 | 0.00 | 0.00 | 25 | 1003.2 |
| 20260506174037 | 84 | 232 | 4.3 | 6.1 | 0.00 | 0.00 | 0.00 | 24 | 1003.3 |
| 20260506173536 | 84 | 246 | 0.0 | 1.7 | 0.00 | 0.00 | 0.00 | 24 | 1003.4 |
| 20260506173034 | 83 | 235 | 0.0 | 6.1 | 0.00 | 0.00 | 0.00 | 25 | 1003.4 |
| 20260506172535 | 83 | 252 | 4.3 | 13.9 | 0.00 | 0.00 | 0.00 | 25 | 1003.6 |
| 20260506172033 | 83 | 253 | 5.2 | 13.9 | 0.00 | 0.00 | 0.00 | 25 | 1003.6 |
| 20260506171540 | 83 | 255 | 2.6 | 10.4 | 0.00 | 0.00 | 0.00 | 27 | 1003.6 |
| 20260506171032 | 82 | 246 | 5.2 | 10.4 | 0.00 | 0.00 | 0.00 | 26 | 1003.7 |
| 20260506170530 | 81 | 246 | 0.0 | 10.4 | 0.00 | 0.00 | 0.00 | 28 | 1003.7 |
| 20260506170034 | 81 | 232 | 5.2 | 10.4 | 0.00 | 0.00 | 0.00 | 27 | 1003.9 |
| 20260506165531 | 81 | 244 | 3.5 | 10.4 | 0.00 | 0.00 | 0.00 | 28 | 1004.0 |
| 20260506165029 | 81 | 239 | 3.5 | 8.7 | 0.00 | 0.00 | 0.00 | 29 | 1004.0 |
| 20260506164633 | 81 | 219 | 0.0 | 0.9 | 0.00 | 0.00 | 0.00 | 29 | 1004.0 |
| 20260506164017 | 81 | 222 | 0.0 | 4.3 | 0.00 | 0.00 | 0.00 | 29 | 1004.1 |
| 20260506163520 | 80 | 253 | 0.0 | 8.7 | 0.00 | 0.00 | 0.00 | 30 | 1004.0 |
| 20260506163017 | 80 | 207 | 4.3 | 9.6 | 0.00 | 0.00 | 0.00 | 29 | 1004.1 |
| 20260506162514 | 80 | 208 | 2.6 | 9.6 | 0.00 | 0.00 | 0.00 | 30 | 1004.1 |
| 20260506162015 | 80 | 211 | 2.6 | 5.2 | 0.00 | 0.00 | 0.00 | 31 | 1004.2 |
| 20260506161513 | 79 | 238 | 0.0 | 4.3 | 0.00 | 0.00 | 0.00 | 31 | 1004.2 |
| 20260506161013 | 79 | 250 | 0.0 | 0.9 | 0.00 | 0.00 | 0.00 | 31 | 1004.2 |
| 20260506160513 | 78 | 246 | 0.0 | 5.2 | 0.00 | 0.00 | 0.00 | 33 | 1004.3 |
| 20260506160010 | 78 | 273 | 0.0 | 5.2 | 0.00 | 0.00 | 0.00 | 32 | 1004.2 |
| 20260506155507 | 77 | 229 | 0.0 | 1.7 | 0.00 | 0.00 | 0.00 | 33 | 1004.3 |
| 20260506155007 | 77 | 246 | 0.0 | 5.2 | 0.00 | 0.00 | 0.00 | 34 | 1004.4 |
| 20260506154506 | 77 | 158 | 0.9 | 10.4 | 0.00 | 0.00 | 0.00 | 32 | 1004.4 |
| 20260506154006 | 77 | 250 | 6.1 | 10.4 | 0.00 | 0.00 | 0.00 | 33 | 1004.4 |
| 20260506153504 | 76 | 114 | 2.6 | 8.7 | 0.00 | 0.00 | 0.00 | 34 | 1004.3 |
| 20260506153005 | 76 | 214 | 3.5 | 9.6 | 0.00 | 0.00 | 0.00 | 33 | 1004.4 |
| 20260506152503 | 76 | 221 | 4.3 | 9.6 | 0.00 | 0.00 | 0.00 | 34 | 1004.4 |
| 20260506152004 | 76 | 243 | 0.0 | 7.8 | 0.00 | 0.00 | 0.00 | 34 | 1004.3 |
| 20260506151501 | 75 | 243 | 2.6 | 8.7 | 0.00 | 0.00 | 0.00 | 33 | 1004.4 |
| 20260506151100 | 75 | 236 | 5.2 | 8.7 | 0.00 | 0.00 | 0.00 | 34 | 1004.4 |
| 20260506150600 | 75 | 232 | 3.5 | 10.4 | 0.00 | 0.00 | 0.00 | 34 | 1004.2 |
| 20260506150106 | 75 | 226 | 4.3 | 10.4 | 0.00 | 0.00 | 0.00 | 34 | 1004.3 |
| 20260506145558 | 74 | 251 | 0.0 | 0.9 | 0.00 | 0.00 | 0.00 | 35 | 1004.4 |
| 20260506145058 | 74 | 238 | 0.0 | 0.9 | 0.00 | 0.00 | 0.00 | 35 | 1004.4 |
| 20260506144608 | 74 | 239 | 0.0 | 0.9 | 0.00 | 0.00 | 0.00 | 34 | 1004.3 |
| 20260506144056 | 74 | 253 | 0.0 | 0.9 | 0.00 | 0.00 | 0.00 | 36 | 1004.4 |
| 20260506143537 | 74 | 232 | 0.0 | 0.9 | 0.00 | 0.00 | 0.00 | 35 | 1004.3 |
| 20260506143045 | 73 | 250 | 0.0 | 0.9 | 0.00 | 0.00 | 0.00 | 35 | 1004.3 |
| 20260506142536 | 73 | 246 | 0.0 | 0.9 | 0.00 | 0.00 | 0.00 | 36 | 1004.3 |
| 20260506142034 | 72 | 270 | 0.0 | 0.9 | 0.00 | 0.00 | 0.00 | 37 | 1004.2 |
| 20260506141533 | 72 | 236 | 0.0 | 0.9 | 0.00 | 0.00 | 0.00 | 41 | 1004.3 |
| 20260506141034 | 72 | 236 | 0.0 | 0.0 | 0.00 | 0.00 | 0.00 | 43 | 1004.2 |
| 20260506140514 | 71 | 274 | 0.0 | 0.0 | 0.00 | 0.00 | 0.00 | 43 | 1004.2 |
| 20260506140014 | 71 | 249 | 0.0 | 0.0 | 0.00 | 0.00 | 0.00 | 44 | 1004.1 |
| 20260506135511 | 70 | 280 | 0.0 | 0.0 | 0.00 | 0.00 | 0.00 | 45 | 1004.1 |
| 20260506135010 | 70 | 256 | 0.0 | 0.0 | 0.00 | 0.00 | 0.00 | 46 | 1004.1 |
| 20260506134509 | 70 | 219 | 0.0 | 0.0 | 0.00 | 0.00 | 0.00 | 46 | 1004.0 |
| 20260506134008 | 68 | 66 | 0.0 | 0.0 | 0.00 | 0.00 | 0.00 | 50 | 1004.0 |
| 20260506133554 | 67 | 67 | 0.0 | 0.0 | 0.00 | 0.00 | 0.00 | 54 | 1003.9 |
| 20260506133051 | 67 | 66 | 0.0 | 0.9 | 0.00 | 0.00 | 0.00 | 54 | 1003.9 |
| 20260506132549 | 68 | 61 | 0.0 | 0.9 | 0.00 | 0.00 | 0.00 | 51 | 1003.8 |
| 20260506132049 | 69 | 246 | 0.0 | 0.0 | 0.00 | 0.00 | 0.00 | 49 | 1003.8 |
| 20260506131552 | 68 | 246 | 0.0 | 0.9 | 0.00 | 0.00 | 0.00 | 47 | 1003.6 |
| 20260506131048 | 67 | 260 | 0.0 | 0.9 | 0.00 | 0.00 | 0.00 | 50 | 1003.5 |
| 20260506130529 | 66 | 243 | 0.0 | 0.0 | 0.00 | 0.00 | 0.00 | 54 | 1003.3 |
| 20260506130028 | 68 | 243 | 0.0 | 0.0 | 0.00 | 0.00 | 0.00 | 51 | 1003.3 |
| 20260506125525 | 68 | 243 | 0.0 | 0.0 | 0.00 | 0.00 | 0.00 | 49 | 1003.2 |
| 20260506125024 | 0 | 0.0 | 0.0 | 0.00 | 0.00 | 0.00 | 1003.1 | ||
| 20260506124523 | 0 | 0.0 | 0.0 | 0.00 | 0.00 | 0.00 | 1003.1 | ||
| 20260506124022 | 0 | 0.0 | 0.0 | 0.00 | 0.00 | 0.00 | 1003.0 | ||
| 20260506123503 | 0 | 0.0 | 0.0 | 0.00 | 0.00 | 0.00 | 1003.0 | ||
| 20260506123001 | 0 | 0.0 | 0.0 | 0.00 | 0.00 | 0.00 | 1003.0 | ||
| 20260506122559 | 0 | 0.0 | 0.0 | 0.00 | 0.00 | 0.00 | 1003.0 | ||
| 20260506122059 | 0 | 0.0 | 0.0 | 0.00 | 0.00 | 0.00 | 1003.0 | ||
| 20260506121557 | 0 | 0.0 | 0.0 | 0.00 | 0.00 | 0.00 | 1002.9 | ||
| 20260506121056 | 0 | 0.0 | 0.0 | 0.00 | 0.00 | 0.00 | 1002.9 | ||
| 20260506120537 | 0 | 0.0 | 0.0 | 0.00 | 0.00 | 0.00 | 1002.8 | ||
| 20260506120041 | 0 | 0.0 | 0.0 | 0.00 | 0.00 | 0.00 | 1002.8 | ||
| 20260506115534 | 0 | 0.0 | 0.0 | 0.00 | 0.00 | 0.00 | 1002.9 | ||
| 20260506115032 | 0 | 0.0 | 0.0 | 0.00 | 0.00 | 0.00 | 1002.9 | ||
| 20260506114540 | 0 | 0.0 | 0.0 | 0.00 | 0.00 | 0.00 | 1002.9 | ||
| 20260506114030 | 0 | 0.0 | 0.0 | 0.00 | 0.00 | 0.00 | 1002.8 | ||
| 20260506113512 | 0 | 0.0 | 0.0 | 0.00 | 0.00 | 0.00 | 1002.8 | ||
| 20260506113009 | 0 | 0.0 | 0.0 | 0.00 | 0.00 | 0.00 | 1002.8 | ||
| 20260506112509 | 0 | 0.0 | 0.0 | 0.00 | 0.00 | 0.00 | 1002.7 | ||
| 20260506112006 | 0 | 0.0 | 0.0 | 0.00 | 0.00 | 0.00 | 1002.6 | ||
| 20260506111508 | 0 | 0.0 | 0.0 | 0.00 | 0.00 | 0.00 | 1002.6 | ||
| 20260506111004 | 0 | 0.0 | 0.0 | 0.00 | 0.00 | 0.00 | 1002.6 | ||
| 20260506110545 | 0 | 0.0 | 0.0 | 0.00 | 0.00 | 0.00 | 1002.6 | ||
| 20260506110050 | 0 | 0.0 | 0.0 | 0.00 | 0.00 | 0.00 | 1002.7 | ||
| 20260506105543 | 0 | 0.0 | 0.0 | 0.00 | 0.00 | 0.00 | 1002.6 | ||
| 20260506105041 | 0 | 0.0 | 0.0 | 0.00 | 0.00 | 0.00 | 1002.4 | ||
| 20260506104539 | 0 | 0.0 | 0.0 | 0.00 | 0.00 | 0.00 | 1002.4 | ||
| 20260506104038 | 0 | 0.0 | 0.0 | 0.00 | 0.00 | 0.00 | 1002.4 | ||
| 20260506103519 | 0 | 0.0 | 0.0 | 0.00 | 0.00 | 0.00 | 1002.4 | ||
| 20260506103017 | 0 | 0.0 | 0.0 | 0.00 | 0.00 | 0.00 | 1002.4 | ||
| 20260506102517 | 65 | 47 | 0.0 | 0.0 | 0.00 | 0.00 | 0.00 | 54 | 1002.4 |
| 20260506102016 | 65 | 47 | 0.0 | 0.0 | 0.00 | 0.00 | 0.00 | 54 | 1002.3 |
| 20260506101532 | 65 | 47 | 0.0 | 0.0 | 0.00 | 0.00 | 0.00 | 54 | 1002.3 |
| 20260506101015 | 66 | 47 | 0.0 | 0.0 | 0.00 | 0.00 | 0.00 | 54 | 1002.3 |
| 20260506100559 | 66 | 266 | 0.0 | 0.0 | 0.00 | 0.00 | 0.00 | 54 | 1002.3 |
| 20260506100056 | 66 | 266 | 0.0 | 0.0 | 0.00 | 0.00 | 0.00 | 54 | 1002.3 |
| 20260506095559 | 66 | 266 | 0.0 | 0.0 | 0.00 | 0.00 | 0.00 | 54 | 1002.3 |
| 20260506095055 | 66 | 266 | 0.0 | 0.0 | 0.00 | 0.00 | 0.00 | 54 | 1002.2 |
| 20260506094558 | 66 | 266 | 0.0 | 0.0 | 0.00 | 0.00 | 0.00 | 53 | 1002.2 |
| 20260506094054 | 66 | 266 | 0.0 | 0.0 | 0.00 | 0.00 | 0.00 | 53 | 1002.1 |
| 20260506093540 | 66 | 264 | 0.0 | 0.0 | 0.00 | 0.00 | 0.00 | 52 | 1002.2 |
| 20260506093037 | 67 | 264 | 0.0 | 0.0 | 0.00 | 0.00 | 0.00 | 52 | 1002.1 |
| 20260506092538 | 67 | 263 | 0.0 | 0.0 | 0.00 | 0.00 | 0.00 | 51 | 1002.1 |
| 20260506092037 | 67 | 263 | 0.0 | 0.0 | 0.00 | 0.00 | 0.00 | 50 | 1002.0 |
| 20260506091537 | 68 | 256 | 0.0 | 0.0 | 0.00 | 0.00 | 0.00 | 49 | 1002.0 |
| 20260506091038 | 68 | 285 | 0.0 | 0.0 | 0.00 | 0.00 | 0.00 | 48 | 1002.0 |
| 20260506090517 | 68 | 46 | 0.0 | 0.0 | 0.00 | 0.00 | 0.00 | 48 | 1002.0 |
| 20260506090020 | 68 | 46 | 0.0 | 0.0 | 0.00 | 0.00 | 0.00 | 47 | 1002.0 |
| 20260506085517 | 68 | 46 | 0.0 | 0.0 | 0.00 | 0.00 | 0.00 | 47 | 1002.1 |
| 20260506085019 | 69 | 47 | 0.0 | 0.0 | 0.00 | 0.00 | 0.00 | 47 | 1002.1 |
| 20260506084521 | 69 | 46 | 0.0 | 0.0 | 0.00 | 0.00 | 0.00 | 47 | 1002.2 |
| 20260506084017 | 70 | 46 | 0.0 | 0.0 | 0.00 | 0.00 | 0.00 | 46 | 1002.2 |
| 20260506083501 | 70 | 46 | 0.0 | 0.0 | 0.00 | 0.00 | 0.00 | 45 | 1002.3 |
| 20260506083101 | 70 | 46 | 0.0 | 0.0 | 0.00 | 0.00 | 0.00 | 45 | 1002.3 |
| 20260506082559 | 71 | 307 | 0.0 | 0.0 | 0.00 | 0.00 | 0.00 | 44 | 1002.3 |
| 20260506082104 | 71 | 20 | 0.0 | 0.0 | 0.00 | 0.00 | 0.00 | 44 | 1002.4 |
| 20260506081602 | 71 | 20 | 0.0 | 0.0 | 0.00 | 0.00 | 0.00 | 43 | 1002.4 |
| 20260506081100 | 72 | 297 | 0.0 | 0.9 | 0.00 | 0.00 | 0.00 | 42 | 1002.4 |
| 20260506080601 | 72 | 246 | 0.0 | 0.9 | 0.00 | 0.00 | 0.00 | 41 | 1002.3 |
| 20260506073023 | 72 | 136 | 0.0 | 2.6 | 0.00 | 0.00 | 0.00 | 42 | 1002.6 |
| 20260506072524 | 72 | 133 | 0.0 | 3.5 | 0.00 | 0.00 | 0.00 | 42 | 1002.7 |
| 20260506072023 | 73 | 129 | 0.0 | 3.5 | 0.00 | 0.00 | 0.00 | 42 | 1002.8 |
| 20260506071523 | 73 | 132 | 0.0 | 2.6 | 0.00 | 0.00 | 0.00 | 42 | 1002.8 |
| 20260506071022 | 73 | 60 | 0.0 | 4.3 | 0.00 | 0.00 | 0.00 | 42 | 1002.8 |
| 20260506070522 | 73 | 129 | 0.0 | 4.3 | 0.00 | 0.00 | 0.00 | 42 | 1002.9 |
| 20260506062052 | 73 | 143 | 0.0 | 3.5 | 0.00 | 0.00 | 0.00 | 41 | 1003.3 |
| 20260506061552 | 73 | 89 | 0.0 | 3.5 | 0.00 | 0.00 | 0.00 | 41 | 1003.4 |
| 20260506061052 | 73 | 191 | 0.0 | 2.6 | 0.00 | 0.00 | 0.00 | 41 | 1003.3 |
| 20260506060554 | 73 | 148 | 0.0 | 1.7 | 0.00 | 0.00 | 0.00 | 40 | 1003.4 |
| 20260506051052 | 74 | 63 | 0.0 | 0.0 | 0.00 | 0.00 | 0.00 | 41 | 1003.5 |
| 20260506050550 | 74 | 59 | 0.0 | 0.9 | 0.00 | 0.00 | 0.00 | 40 | 1003.4 |
| 20260506045049 | 74 | 75 | 0.0 | 0.9 | 0.00 | 0.00 | 0.00 | 39 | 1003.4 |
| 20260506044551 | 74 | 53 | 0.0 | 0.9 | 0.00 | 0.00 | 0.00 | 39 | 1003.5 |
| 20260506044048 | 74 | 64 | 0.0 | 0.0 | 0.00 | 0.00 | 0.00 | 38 | 1003.4 |
| 20260506043549 | 74 | 64 | 0.0 | 0.0 | 0.00 | 0.00 | 0.00 | 38 | 1003.3 |
| 20260506043030 | 74 | 65 | 0.0 | 0.0 | 0.00 | 0.00 | 0.00 | 38 | 1003.3 |
| 20260506042531 | 74 | 68 | 0.0 | 0.0 | 0.00 | 0.00 | 0.00 | 37 | 1003.3 |
| 20260506042034 | 74 | 67 | 0.0 | 0.0 | 0.00 | 0.00 | 0.00 | 36 | 1003.2 |
| 20260506041542 | 75 | 63 | 0.0 | 1.7 | 0.00 | 0.00 | 0.00 | 34 | 1003.2 |